JY1SAT (JO-97)

Last updated on Wed May 14 2025 00:03:03 GMT+0000 (Coordinated Universal Time)

1 43803U 18099AX 25133.14199303 .00010795 00000+0 50089-3 0 9995 2 43803 97.4678 192.4736 0006539 229.4648 130.6018 15.20200357352601
UTC large
Height (km)
Speed (km/s)
/
Latitude / Longitude
Inclination (degrees)
Orbital Period (minutes)
Azimuth
Elevation
Range (km)
Doppler Factor

Next 0 passes for location: London (51.5072 / 0.1276)

Sorry there are no passes over London.